Location: Poughquag
(41.6090°N, 73.6820°W)
Time: 19:25:05
(UTC-05:00)

X-37B - Visible Passes

Search period start: 25 January 2021 00:00
Search period end: 04 February 2021 00:00
Orbit: 383 x 391 km, 45.1° (Epoch: 22 January)

Date Brightness Start Highest point End Pass type
(mag) Time Alt. Az. Time Alt. Az. Time Alt. Az.
25 Jan 1.2 18:39:54 10° WNW 18:42:55 44° N 18:42:55 44° N visible
26 Jan 1.3 17:41:26 10° WNW 17:44:30 42° N 17:47:15 12° ENE visible
26 Jan 2.9 19:18:11 10° WNW 19:19:33 23° WNW 19:19:33 23° WNW visible
27 Jan 0.8 18:19:48 10° WNW 18:22:57 53° NNE 18:23:57 35° ENE visible
28 Jan 1.2 18:58:04 10° WNW 19:00:44 57° W 19:00:44 57° W visible
29 Jan 0.5 17:59:40 10° WNW 18:02:51 74° NNE 18:05:20 16° ESE visible
29 Jan 3.7 19:36:40 10° W 19:37:38 16° WSW 19:37:38 16° WSW visible
30 Jan 1.7 18:38:00 10° W 18:41:02 40° SSW 18:42:23 25° SSE visible
31 Jan 0.8 17:39:33 10° WNW 17:42:44 71° SSW 17:45:53 10° ESE visible
31 Jan 3.5 19:17:21 10° WSW 19:18:56 13° SW 19:19:38 12° SSW visible
01 Feb 2.9 18:18:10 10° W 18:20:46 23° SW 18:23:21 10° SSE visible
03 Feb 3.7 17:58:53 10° WSW 18:00:24 13° SW 18:01:56 10° S visible
